Location: Unspecified
(0.0000°N, 0.0000°E)
Time: 12:55:09
(UTC+00:00)

Explorer 11/Cluster Stage 4 - Pass Details

Date: 18 September 2019
Orbit: 467 x 1259 km, 28.8° (Epoch: 13 October)

Event Time Altitude Azimuth Distance (km) Brightness Sun altitude
Rises 19:37:10 0° 250° (WSW) 4,079 11.3 -25.7°
Reaches altitude 10° 19:40:19 10° 255° (WSW) 3,031 10.5 -26.5°
Maximum altitude 19:47:30 49° 327° (NNW) 1,262 7.7 -28.3°
Enters shadow 19:49:18 40° 10° (N) 1,389 7.7 -28.8°
